Location: Newark
(27.9675°N, 86.8869°E)
Time: 23:16:46
(UTC+00:00)

SR - Pass Details

Date: 28 October 2019
Orbit: 574 x 882 km, 66.7° (Epoch: 17 November)

Event Time Altitude Azimuth Distance (km) Brightness Sun altitude
Rises 22:09:06 0° 358° (N) 3,478 ? -29.7°
Reaches altitude 10° 22:13:02 10° 23° (NNE) 2,539 ? -28.8°
Maximum altitude 22:15:56 14° 53° (NE) 2,267 ? -28.2°
Drops below altitude 10° 22:18:48 10° 82° (E) 2,507 ? -27.5°
Sets 22:22:37 0° 108° (ESE) 3,400 ? -26.7°
